EW2821 Weather Reports


Display with metric or nautical units.
time (UTC)temp
F
wind
direction
speed
MPH
gust
MPH
rain 1hr
in
rain 24hr
in
rain mn
in
humidity
%
barometer
mb
20260906193037 76 352 7.0 14.0 0.00 0.14 0.01 63 1017.2
20260906191537 77 351 4.0 9.0 0.00 0.14 0.01 62 1017.3
20260906190049 76 107 6.0 13.0 0.00 0.14 0.01 63 1017.5
20260906184539 76 59 3.0 11.0 0.00 0.14 0.01 64 1017.3
20260906183038 76 62 2.0 12.0 0.00 0.14 0.01 65 1017.4
20260906181539 76 220 4.0 16.0 0.00 0.14 0.01 63 1017.5
20260906180032 76 84 5.0 10.0 0.00 0.14 0.01 65 1017.5
20260906174530 76 90 4.0 14.0 0.00 0.14 0.01 64 1017.7
20260906173029 75 128 3.0 15.0 0.00 0.14 0.01 66 1017.8
20260906171528 75 48 4.0 13.0 0.00 0.14 0.01 62 1017.9
20260906170031 75 85 3.0 13.0 0.00 0.14 0.01 68 1017.9
20260906164524 74 20 3.0 12.0 0.00 0.15 0.01 69 1018.1
20260906163021 74 60 4.0 11.0 0.00 0.15 0.01 69 1018.1
20260906161519 74 118 4.0 12.0 0.00 0.15 0.01 71 1018.2
20260906160016 74 103 3.0 12.0 0.00 0.15 0.01 71 1018.2
20260906154512 73 10 3.0 13.0 0.00 0.15 0.01 74 1018.2
20260906153013 73 47 4.0 11.0 0.00 0.15 0.01 71 1018.3
20260906151507 73 125 3.0 10.0 0.00 0.15 0.01 74 1018.2
20260906150008 72 94 4.0 9.0 0.00 0.15 0.01 74 1018.3
20260906144559 72 107 3.0 8.0 0.00 0.16 0.01 77 1018.1
20260906143057 71 118 3.0 9.0 0.00 0.16 0.01 77 1018.1
20260906141551 70 347 2.0 8.0 0.00 0.16 0.01 79 1018.1
20260906140050 70 355 2.0 9.0 0.00 0.16 0.01 81 1017.8
20260906134544 69 38 4.0 9.0 0.00 0.16 0.01 83 1017.9
20260906133057 68 53 4.0 10.0 0.00 0.16 0.01 85 1017.8
20260906131539 66 5 2.0 8.0 0.00 0.16 0.01 86 1017.9
20260906130040 66 311 3.0 6.0 0.00 0.16 0.01 87 1017.8
20260906124529 65 83 2.0 8.0 0.00 0.16 0.01 89 1017.5
20260906123025 64 322 2.0 6.0 0.00 0.16 0.01 90 1017.2
20260906121522 63 17 1.0 5.0 0.00 0.16 0.01 91 1017.1
20260906120023 63 351 0.0 4.0 0.00 0.16 0.01 91 1016.9
20260906114525 63 335 2.0 5.0 0.00 0.16 0.01 90 1016.7
20260906113016 64 10 0.0 6.0 0.00 0.16 0.01 90 1016.6
20260906111512 64 10 2.0 8.0 0.00 0.16 0.01 89 1016.3
20260906110010 65 39 1.0 8.0 0.00 0.16 0.01 88 1016.1
20260906104508 65 45 3.0 10.0 0.00 0.16 0.01 87 1016.0
20260906103011 65 347 2.0 7.0 0.00 0.16 0.01 88 1016.1
20260906101508 65 20 1.0 6.0 0.00 0.16 0.01 87 1016.0
20260906100007 65 339 1.0 6.0 0.00 0.16 0.01 87 1015.9
20260906094506 65 89 4.0 10.0 0.00 0.16 0.01 86 1016.0
20260906093016 65 355 3.0 8.0 0.00 0.16 0.01 85 1015.9
20260906091505 65 356 2.0 6.0 0.00 0.16 0.01 85 1015.9
20260906090007 64 49 1.0 4.0 0.00 0.16 0.01 85 1015.7
20260906084504 65 49 0.0 4.0 0.00 0.16 0.01 85 1015.5
20260906083001 65 81 0.0 10.0 0.00 0.16 0.01 84 1015.3
20260906081501 65 10 1.0 9.0 0.00 0.16 0.01 83 1015.4
20260906080108 66 350 2.0 10.0 0.00 0.16 0.01 83 1015.4
20260906074602 65 124 2.0 10.0 0.00 0.16 0.01 84 1015.4
20260906073058 65 251 0.0 9.0 0.00 0.16 0.01 84 1015.4
20260906071558 65 71 1.0 11.0 0.00 0.16 0.01 84 1015.4
20260906070057 65 104 2.0 6.0 0.00 0.16 0.01 85 1015.3
20260906064556 65 50 0.0 10.0 0.01 0.16 0.01 86 1015.4
20260906063056 65 353 0.0 5.0 0.01 0.16 0.01 87 1015.3
20260906061602 65 5 1.0 5.0 0.01 0.16 0.01 87 1015.5
20260906060052 66 330 1.0 6.0 0.01 0.16 0.01 87 1015.5
20260906054549 66 10 3.0 5.0 0.00 0.15 0.00 88 1015.3
20260906053100 67 68 2.0 9.0 0.00 0.15 0.00 89 1015.2
20260906051545 67 17 1.0 6.0 0.00 0.15 0.00 90 1015.0
20260906050043 68 10 1.0 9.0 0.00 0.15 0.00 92 1015.0
20260906044538 69 14 0.0 5.0 0.00 0.15 0.00 93 1015.0
20260906043038 69 341 1.0 4.0 0.00 0.15 0.00 93 1014.7
20260906041545 70 43 2.0 8.0 0.00 0.15 0.00 94 1014.8
20260906040034 70 340 2.0 8.0 0.00 0.15 0.00 94 1014.7
20260906034535 71 147 1.0 6.0 0.00 0.15 0.15 93 1014.6
20260906033030 71 97 1.0 6.0 0.00 0.15 0.15 93 1014.6
20260906031535 72 88 2.0 9.0 0.00 0.15 0.15 93 1014.5
20260906030035 72 100 2.0 6.0 0.00 0.15 0.15 94 1014.6
20260906024528 72 342 2.0 8.0 0.00 0.15 0.15 94 1014.7
20260906023027 73 79 1.0 9.0 0.00 0.15 0.15 94 1014.7
20260906021527 73 54 1.0 6.0 0.00 0.15 0.15 94 1014.6
20260906020026 73 91 0.0 8.0 0.00 0.15 0.15 93 1014.4
20260906014540 73 5 1.0 8.0 0.00 0.15 0.15 93 1014.2
20260906013027 73 353 4.0 11.0 0.00 0.15 0.15 92 1014.1
20260906011525 74 128 2.0 5.0 0.00 0.15 0.15 92 1013.9
20260906010053 74 72 1.0 4.0 0.00 0.15 0.15 93 1013.9
20260906004524 75 349 1.0 8.0 0.00 0.15 0.15 93 1013.7
20260906003024 75 39 3.0 6.0 0.00 0.15 0.15 94 1013.2
20260906001533 76 36 1.0 7.0 0.00 0.15 0.15 94 1013.2
20260906000023 75 343 0.0 4.0 0.00 0.15 0.15 94 1013.2
20260905234522 75 303 0.0 0.0 0.00 0.15 0.15 92 1013.2
20260905233021 75 303 0.0 2.0 0.00 0.15 0.15 92 1013.0
20260905231535 75 301 3.0 4.0 0.00 0.15 0.15 93 1013.0
20260905230020 76 82 0.0 3.0 0.00 0.15 0.15 94 1013.3
20260905224520 76 84 0.0 2.0 0.00 0.15 0.15 94 1013.3
20260905223029 76 84 1.0 3.0 0.00 0.15 0.15 93 1013.1
20260905221517 77 79 1.0 2.0 0.01 0.15 0.15 90 1012.8
20260905220024 77 283 2.0 11.0 0.13 0.15 0.15 88 1012.9
20260905214518 78 214 1.0 4.0 0.13 0.15 0.15 91 1012.6
20260905213020 79 76 0.0 0.0 0.13 0.15 0.15 86 1012.5
20260905211534 85 43 6.0 13.0 0.11 0.13 0.13 72 1012.3
20260905210013 88 285 5.0 10.0 0.00 0.02 0.02 67 1012.3
20260905204518 88 314 5.0 10.0 0.00 0.02 0.02 69 1012.6
20260905203009 87 278 3.0 9.0 0.00 0.02 0.02 69 1012.7
20260905201508 87 303 5.0 11.0 0.00 0.02 0.02 69 1012.9
20260905200005 87 321 6.0 9.0 0.00 0.02 0.02 67 1013.0
20260905194505 88 273 2.0 8.0 0.00 0.02 0.02 67 1013.2